User: anonymous   Login
Location: Brno
(49.2000°N, 16.6330°E)
Time: 21:32:53
(UTC+02:00)
Language:

NOSS 3-4 (A) - Orbit

View from above orbital plane
View from above orbital plane
View from above satellite
View from above satellite

Ground track
Ground track

The orbit data is extracted from the following two-line orbital elements,

1 31701U 07027A   16133.86058891 0.00000000  00000-0  00000-0 0    00
2 31701  63.4039  23.8060 0155000  26.2499 333.7501 13.40707188    02
Epoch (UTC): 12 May 2016 20:39:14
Eccentricity: 0.0155000
inclination: 63.4039°
perigee height: 990 km
apogee height: 1222 km
right ascension of ascending node: 23.8060°
argument of perigee: 26.2499°
revolutions per day: 13.40707188
mean anomaly at epoch: 333.7501°
orbit number at epoch: 0

The dashed part of the orbit path shows where the satellite is in the earth's shadow,  

DLR